| time (UTC) | temp F | wind direction | speed knots | gust knots | rain 1hr in | rain 24hr in | rain mn in | humidity % | barometer mb |
| 20260510204558 | 84 | 259 | 0.9 | 3.5 | 0.00 | 0.00 | 0.00 | 70 | 1015.8 |
| 20260510203055 | 82 | 0 | 0.0 | 7.0 | 0.00 | 0.00 | 0.00 | 70 | 1015.8 |
| 20260510201602 | 81 | 89 | 1.7 | 5.2 | 0.00 | 0.00 | 0.00 | 70 | 1016.0 |
| 20260510200054 | 82 | 77 | 2.6 | 5.2 | 0.00 | 0.00 | 0.00 | 68 | 1016.0 |
| 20260510194559 | 82 | 198 | 0.9 | 3.5 | 0.00 | 0.00 | 0.00 | 67 | 1016.0 |
| 20260510193054 | 80 | 196 | 0.0 | 2.6 | 0.00 | 0.00 | 0.00 | 71 | 1015.9 |
| 20260510191558 | 80 | 309 | 1.7 | 4.3 | 0.00 | 0.00 | 0.00 | 72 | 1015.8 |
| 20260510190054 | 80 | 248 | 0.9 | 3.5 | 0.00 | 0.00 | 0.00 | 72 | 1015.9 |
| 20260510184604 | 79 | 0 | 2.6 | 4.3 | 0.00 | 0.00 | 0.00 | 72 | 1016.1 |
| 20260510183056 | 78 | 345 | 1.7 | 5.2 | 0.00 | 0.00 | 0.00 | 74 | 1016.2 |
| 20260510181607 | 78 | 158 | 2.6 | 7.0 | 0.00 | 0.00 | 0.00 | 74 | 1016.5 |
| 20260510180108 | 78 | 333 | 1.7 | 4.3 | 0.00 | 0.00 | 0.00 | 77 | 1016.7 |
| 20260510174555 | 77 | 43 | 2.6 | 7.8 | 0.00 | 0.00 | 0.00 | 76 | 1016.7 |
| 20260510173102 | 76 | 0 | 2.6 | 6.1 | 0.00 | 0.00 | 0.00 | 80 | 1017.0 |
| 20260510171603 | 76 | 322 | 0.9 | 2.6 | 0.00 | 0.00 | 0.00 | 79 | 1017.3 |
| 20260510170101 | 75 | 47 | 1.7 | 7.0 | 0.00 | 0.00 | 0.00 | 80 | 1017.4 |
| 20260510164603 | 74 | 334 | 1.7 | 7.0 | 0.00 | 0.00 | 0.00 | 80 | 1017.7 |
| 20260510163056 | 74 | 263 | 1.7 | 4.3 | 0.00 | 0.00 | 0.00 | 82 | 1017.8 |
| 20260510161604 | 73 | 352 | 0.9 | 4.3 | 0.00 | 0.00 | 0.00 | 83 | 1017.9 |
| 20260510160056 | 72 | 52 | 2.6 | 7.0 | 0.00 | 0.00 | 0.00 | 83 | 1017.9 |
| 20260510154558 | 71 | 51 | 0.9 | 4.3 | 0.00 | 0.02 | 0.00 | 85 | 1018.0 |
| 20260510153058 | 70 | 240 | 0.9 | 3.5 | 0.00 | 0.02 | 0.00 | 86 | 1018.1 |
| 20260510151556 | 70 | 0 | 0.9 | 2.6 | 0.00 | 0.02 | 0.00 | 90 | 1018.0 |
| 20260510150119 | 69 | 0 | 0.0 | 1.7 | 0.00 | 0.02 | 0.00 | 91 | 1018.0 |
| 20260510144552 | 69 | 0 | 0.0 | 2.6 | 0.00 | 0.26 | 0.00 | 91 | 1018.1 |
| 20260510143054 | 68 | 0 | 0.9 | 3.5 | 0.00 | 0.26 | 0.00 | 91 | 1017.9 |
| 20260510141555 | 67 | 0 | 0.9 | 7.0 | 0.00 | 0.26 | 0.00 | 94 | 1017.8 |
| 20260510140057 | 67 | 0 | 0.9 | 4.3 | 0.00 | 0.26 | 0.00 | 95 | 1017.7 |
| 20260510134556 | 67 | 44 | 0.0 | 2.6 | 0.00 | 0.47 | 0.00 | 96 | 1017.6 |
| 20260510133056 | 66 | 59 | 1.7 | 4.3 | 0.00 | 0.47 | 0.00 | 97 | 1017.5 |
| 20260510131551 | 66 | 0 | 0.0 | 0.9 | 0.00 | 0.47 | 0.00 | 98 | 1017.4 |
| 20260510130054 | 66 | 0 | 0.0 | 1.7 | 0.00 | 0.47 | 0.00 | 98 | 1017.3 |
| 20260510124603 | 65 | 0 | 0.0 | 0.9 | 0.00 | 0.72 | 0.00 | 98 | 1017.1 |
| 20260510123059 | 65 | 0 | 0.0 | 1.7 | 0.00 | 0.72 | 0.00 | 98 | 1016.8 |
| 20260510121554 | 64 | 76 | 0.0 | 2.6 | 0.00 | 0.72 | 0.00 | 98 | 1016.5 |
| 20260510120054 | 64 | 0 | 0.0 | 1.7 | 0.00 | 0.72 | 0.00 | 98 | 1016.2 |
| 20260510114601 | 64 | 0 | 0.0 | 0.9 | 0.00 | 0.87 | 0.00 | 98 | 1015.9 |
| 20260510113056 | 64 | 0 | 0.0 | 0.9 | 0.00 | 0.87 | 0.00 | 98 | 1015.7 |
| 20260510111604 | 64 | 0 | 0.0 | 0.9 | 0.00 | 0.87 | 0.00 | 98 | 1015.4 |
| 20260510110055 | 63 | 0 | 0.0 | 0.0 | 0.00 | 0.87 | 0.00 | 98 | 1015.1 |
| 20260510104557 | 63 | 0 | 0.0 | 1.7 | 0.00 | 0.87 | 0.00 | 98 | 1014.9 |
| 20260510103103 | 63 | 310 | 0.0 | 0.9 | 0.00 | 0.87 | 0.00 | 98 | 1014.6 |
| 20260510101559 | 64 | 0 | 0.0 | 0.9 | 0.00 | 0.87 | 0.00 | 98 | 1014.4 |
| 20260510100055 | 64 | 0 | 0.0 | 0.0 | 0.00 | 0.87 | 0.00 | 98 | 1014.4 |
| 20260510094607 | 63 | 0 | 0.0 | 1.7 | 0.00 | 0.87 | 0.00 | 98 | 1014.3 |
| 20260510093114 | 63 | 0 | 0.0 | 1.7 | 0.00 | 0.87 | 0.00 | 98 | 1014.3 |
| 20260510091553 | 63 | 0 | 0.0 | 0.9 | 0.00 | 0.87 | 0.00 | 98 | 1014.2 |
| 20260510090053 | 63 | 310 | 0.0 | 0.9 | 0.00 | 0.87 | 0.00 | 98 | 1014.2 |
| 20260510084554 | 63 | 0 | 0.0 | 1.7 | 0.00 | 0.87 | 0.00 | 98 | 1014.2 |
| 20260510083106 | 63 | 0 | 0.0 | 0.0 | 0.00 | 0.87 | 0.00 | 98 | 1014.1 |
| 20260510081554 | 63 | 0 | 0.0 | 0.9 | 0.00 | 0.87 | 0.00 | 98 | 1013.9 |
| 20260510080058 | 63 | 0 | 0.0 | 0.0 | 0.00 | 0.87 | 0.00 | 98 | 1013.7 |
| 20260510074556 | 63 | 0 | 0.0 | 0.0 | 0.00 | 0.87 | 0.00 | 98 | 1013.8 |
| 20260510073058 | 63 | 0 | 0.0 | 0.9 | 0.00 | 0.87 | 0.00 | 97 | 1013.7 |
| 20260510071555 | 63 | 310 | 0.0 | 0.9 | 0.00 | 0.87 | 0.00 | 97 | 1013.5 |
| 20260510070058 | 63 | 0 | 0.0 | 0.9 | 0.00 | 0.87 | 0.00 | 97 | 1013.4 |
| 20260510064604 | 63 | 0 | 0.0 | 0.9 | 0.00 | 0.87 | 0.00 | 97 | 1013.3 |
| 20260510063059 | 63 | 0 | 0.0 | 0.9 | 0.00 | 0.87 | 0.00 | 97 | 1013.4 |
| 20260510061559 | 63 | 0 | 0.0 | 0.9 | 0.00 | 0.87 | 0.00 | 97 | 1013.4 |
| 20260510060056 | 63 | 0 | 0.0 | 0.9 | 0.00 | 0.87 | 0.00 | 97 | 1013.2 |
| 20260510054552 | 63 | 0 | 0.0 | 0.9 | 0.00 | 0.87 | 0.00 | 97 | 1013.4 |
| 20260510053052 | 64 | 0 | 0.0 | 1.7 | 0.00 | 0.87 | 0.00 | 97 | 1013.3 |
| 20260510051602 | 64 | 0 | 0.0 | 0.0 | 0.00 | 0.87 | 0.00 | 97 | 1013.6 |
| 20260510050055 | 64 | 0 | 0.0 | 1.7 | 0.00 | 0.87 | 0.00 | 97 | 1013.8 |
| 20260510044610 | 64 | 0 | 0.0 | 0.9 | 0.00 | 0.87 | 0.87 | 97 | 1014.0 |
| 20260510043057 | 64 | 310 | 0.0 | 1.7 | 0.00 | 0.87 | 0.87 | 97 | 1014.2 |
| 20260510041554 | 64 | 0 | 0.0 | 0.9 | 0.00 | 0.87 | 0.87 | 97 | 1014.2 |
| 20260510040057 | 64 | 0 | 0.0 | 1.7 | 0.00 | 0.87 | 0.87 | 97 | 1014.2 |
| 20260510034600 | 64 | 0 | 0.9 | 1.7 | 0.00 | 0.87 | 0.87 | 97 | 1014.5 |
| 20260510033109 | 64 | 0 | 0.0 | 0.9 | 0.00 | 0.87 | 0.87 | 97 | 1014.1 |
| 20260510031557 | 65 | 277 | 0.9 | 2.6 | 0.00 | 0.87 | 0.87 | 97 | 1014.1 |
| 20260510030107 | 65 | 0 | 0.0 | 0.9 | 0.00 | 0.87 | 0.87 | 97 | 1014.1 |
| 20260510024603 | 65 | 309 | 0.0 | 0.9 | 0.00 | 0.87 | 0.87 | 97 | 1014.3 |
| 20260510023055 | 65 | 0 | 0.0 | 1.7 | 0.00 | 0.87 | 0.87 | 96 | 1014.2 |
| 20260510021601 | 65 | 0 | 0.0 | 0.9 | 0.00 | 0.87 | 0.87 | 96 | 1013.8 |
| 20260510020056 | 65 | 0 | 0.0 | 0.9 | 0.00 | 0.87 | 0.87 | 96 | 1013.8 |
| 20260510014559 | 65 | 0 | 0.0 | 1.7 | 0.00 | 0.87 | 0.87 | 96 | 1013.9 |
| 20260510013055 | 66 | 0 | 0.0 | 0.9 | 0.00 | 0.87 | 0.87 | 96 | 1013.6 |
| 20260510011554 | 66 | 0 | 0.0 | 1.7 | 0.00 | 0.87 | 0.87 | 96 | 1013.9 |
| 20260510010055 | 66 | 352 | 0.9 | 1.7 | 0.00 | 0.87 | 0.87 | 96 | 1014.0 |
| 20260510004557 | 66 | 0 | 0.0 | 0.9 | 0.00 | 0.87 | 0.87 | 96 | 1013.2 |
| 20260510003057 | 66 | 0 | 0.0 | 0.9 | 0.00 | 0.87 | 0.87 | 96 | 1013.0 |
| 20260510001553 | 66 | 164 | 0.0 | 0.9 | 0.00 | 0.87 | 0.87 | 95 | 1013.0 |
| 20260510000054 | 66 | 0 | 0.0 | 0.0 | 0.00 | 0.87 | 0.87 | 95 | 1012.9 |
| 20260509234556 | 66 | 0 | 0.0 | 1.7 | 0.00 | 0.88 | 0.87 | 95 | 1012.7 |
| 20260509233101 | 66 | 0 | 0.0 | 0.0 | 0.00 | 0.88 | 0.87 | 95 | 1012.5 |
| 20260509231556 | 66 | 89 | 0.0 | 1.7 | 0.00 | 0.88 | 0.87 | 95 | 1012.5 |
| 20260509230100 | 67 | 0 | 0.0 | 0.9 | 0.00 | 0.88 | 0.87 | 94 | 1012.7 |
| 20260509224600 | 67 | 0 | 0.0 | 0.9 | 0.00 | 0.91 | 0.87 | 93 | 1012.6 |
| 20260509223059 | 67 | 0 | 0.0 | 1.7 | 0.00 | 0.91 | 0.87 | 94 | 1012.1 |
| 20260509221600 | 66 | 0 | 0.0 | 1.7 | 0.00 | 0.91 | 0.87 | 93 | 1012.1 |
| 20260509220106 | 67 | 194 | 0.0 | 0.9 | 0.00 | 0.91 | 0.87 | 94 | 1012.0 |
| 20260509214600 | 66 | 0 | 0.0 | 0.0 | 0.00 | 1.05 | 0.87 | 95 | 1012.1 |
| 20260509213124 | 66 | 0 | 0.0 | 0.9 | 0.00 | 1.05 | 0.87 | 94 | 1011.9 |
| 20260509211555 | 66 | 0 | 0.0 | 1.7 | 0.00 | 1.05 | 0.87 | 94 | 1012.1 |
| 20260509210106 | 66 | 0 | 0.0 | 1.7 | 0.00 | 1.05 | 0.87 | 94 | 1012.2 |